DW1028 Weather Reports


Display with metric or nautical units.
time (UTC)temp
F
wind
direction
speed
MPH
gust
MPH
rain 1hr
in
rain 24hr
in
rain mn
in
humidity
%
barometer
mb
20260508003054 69 288 10.0 17.0 0.00 0.00 0.00 22 1014.3
20260508001549 70 267 12.0 18.0 0.00 0.00 0.00 21 1014.3
20260508000059 71 291 11.0 18.0 0.00 0.00 0.00 22 1014.4
20260507234545 71 276 12.0 18.0 0.00 0.00 0.00 21 1014.3
20260507233048 71 287 11.0 16.0 0.00 0.00 0.00 25 1014.3
20260507231551 72 279 9.0 17.0 0.00 0.00 0.00 26 1014.4
20260507230052 72 248 10.0 16.0 0.00 0.00 0.00 24 1014.6
20260507224559 72 273 10.0 19.0 0.00 0.00 0.00 21 1014.7
20260507223055 71 297 12.0 19.0 0.00 0.00 0.00 21 1014.9
20260507221551 70 314 11.0 20.0 0.00 0.00 0.00 19 1015.0
20260507220053 71 317 12.0 17.0 0.00 0.00 0.00 19 1015.0
20260507214602 70 318 11.0 19.0 0.00 0.00 0.00 20 1015.2
20260507213048 71 347 11.0 17.0 0.00 0.00 0.00 23 1015.3
20260507211551 71 294 10.0 18.0 0.00 0.00 0.00 25 1015.3
20260507210059 71 305 14.0 20.0 0.00 0.00 0.00 24 1015.5
20260507204556 70 290 10.0 20.0 0.00 0.00 0.00 24 1015.7
20260507203103 71 292 13.0 20.0 0.00 0.00 0.00 26 1015.7
20260507201556 71 279 12.0 25.0 0.00 0.00 0.00 25 1015.8
20260507200104 70 269 9.0 15.0 0.00 0.00 0.00 29 1015.9
20260507194552 70 271 12.0 20.0 0.00 0.00 0.00 29 1016.0
20260507193049 69 217 7.0 21.0 0.00 0.00 0.00 28 1016.1
20260507191548 69 231 9.0 21.0 0.00 0.00 0.00 28 1016.1
20260507190052 68 248 11.0 18.0 0.00 0.00 0.00 29 1016.2
20260507184559 67 259 9.0 18.0 0.00 0.00 0.00 30 1016.4
20260507183052 66 224 13.0 19.0 0.00 0.00 0.00 30 1016.4
20260507181551 66 232 12.0 22.0 0.00 0.00 0.00 35 1016.4
20260507180051 66 286 9.0 17.0 0.00 0.00 0.00 36 1016.6
20260507174552 65 243 14.0 21.0 0.00 0.00 0.00 33 1016.5
20260507173050 64 219 13.0 22.0 0.00 0.00 0.00 37 1016.5
20260507171551 63 209 13.0 20.0 0.00 0.00 0.00 38 1016.5
20260507164600 62 227 11.0 16.0 0.00 0.00 0.00 49 1016.5
20260507163059 61 221 8.0 14.0 0.00 0.00 0.00 51 1016.6
20260507161558 59 219 11.0 17.0 0.00 0.00 0.00 56 1016.5
20260507160055 58 254 8.0 13.0 0.00 0.00 0.00 61 1016.6
20260507154559 57 210 8.0 14.0 0.00 0.00 0.00 63 1016.8
20260507153106 57 221 9.0 14.0 0.00 0.00 0.00 62 1017.0
20260507151550 56 245 9.0 14.0 0.00 0.00 0.00 65 1017.1
20260507150056 54 252 8.0 10.0 0.00 0.00 0.00 67 1017.0
20260507144551 54 212 7.0 12.0 0.00 0.00 0.00 69 1016.9
20260507143057 53 257 7.0 13.0 0.00 0.00 0.00 72 1016.9
20260507141553 52 225 8.0 15.0 0.00 0.00 0.00 75 1016.5
20260507140048 51 211 10.0 15.0 0.00 0.00 0.00 76 1016.4
20260507134552 50 243 8.0 13.0 0.00 0.00 0.00 78 1016.6
20260507133115 49 242 9.0 14.0 0.00 0.00 0.00 79 1016.6
20260507131552 50 224 11.0 17.0 0.00 0.00 0.00 78 1016.4
20260507130107 49 254 8.0 12.0 0.00 0.00 0.00 79 1016.4
20260507124550 49 209 8.0 12.0 0.00 0.00 0.00 80 1016.4
20260507123054 49 203 9.0 12.0 0.00 0.00 0.00 79 1016.4
20260507121605 50 193 3.0 7.0 0.00 0.00 0.00 76 1016.8
20260507120100 50 0 0.0 3.0 0.00 0.00 0.00 76 1017.0
20260507114633 51 0 2.0 7.0 0.00 0.00 0.00 74 1016.9
20260507113049 52 265 5.0 11.0 0.00 0.00 0.00 73 1016.7
20260507111548 52 254 5.0 8.0 0.00 0.00 0.00 72 1016.6
20260507110050 53 191 6.0 9.0 0.00 0.00 0.00 71 1016.4
20260507104552 54 263 6.0 12.0 0.00 0.00 0.00 70 1016.5
20260507103048 54 236 7.0 10.0 0.00 0.00 0.00 70 1016.4
20260507101549 55 231 6.0 11.0 0.00 0.00 0.00 68 1016.6
20260507100049 54 194 5.0 9.0 0.00 0.00 0.00 69 1016.5
20260507094550 55 212 4.0 8.0 0.00 0.00 0.00 68 1016.6
20260507093049 56 202 8.0 13.0 0.00 0.00 0.00 67 1016.4
20260507091552 55 197 6.0 11.0 0.00 0.00 0.00 68 1016.5
20260507090051 55 196 5.0 7.0 0.00 0.00 0.00 69 1016.5
20260507084557 56 214 5.0 8.0 0.00 0.00 0.00 68 1016.8
20260507083050 56 229 5.0 10.0 0.00 0.00 0.00 66 1016.6
20260507081552 56 254 5.0 11.0 0.00 0.00 0.00 66 1016.7
20260507080117 57 231 8.0 12.0 0.00 0.00 0.00 64 1016.6
20260507074548 57 227 10.0 15.0 0.00 0.00 0.00 64 1016.5
20260507073059 58 235 11.0 18.0 0.00 0.00 0.00 62 1016.4
20260507071549 58 236 10.0 15.0 0.00 0.00 0.00 59 1016.4
20260507070054 59 193 11.0 19.0 0.00 0.00 0.00 57 1016.6
20260507064555 59 248 13.0 23.0 0.00 0.00 0.00 54 1016.6
20260507063057 60 252 16.0 27.0 0.00 0.00 0.00 53 1016.5
20260507061554 60 235 11.0 20.0 0.00 0.00 0.00 52 1016.9
20260507060051 60 194 11.0 21.0 0.00 0.00 0.00 51 1017.0
20260507054552 60 198 9.0 18.0 0.00 0.00 0.00 51 1017.2
20260507053047 60 239 14.0 21.0 0.00 0.00 0.00 51 1017.0
20260507051552 61 204 12.0 23.0 0.00 0.00 0.00 49 1017.0
20260507050051 61 233 9.0 18.0 0.00 0.00 0.00 49 1017.1
20260507044548 61 225 8.0 14.0 0.00 0.00 0.00 49 1017.1
20260507043047 62 232 10.0 16.0 0.00 0.00 0.00 48 1017.0
20260507041551 62 209 9.0 21.0 0.00 0.00 0.00 48 1017.0
20260507040100 63 227 11.0 21.0 0.00 0.00 0.00 47 1016.9
20260507034556 63 248 14.0 21.0 0.00 0.00 0.00 46 1016.8
20260507033056 63 279 11.0 25.0 0.00 0.00 0.00 46 1016.8
20260507031551 63 261 14.0 21.0 0.00 0.00 0.00 47 1016.7
20260507030051 64 288 10.0 29.0 0.00 0.00 0.00 48 1016.5
20260507024606 63 276 11.0 20.0 0.00 0.00 0.00 50 1016.5
20260507023054 64 271 12.0 18.0 0.00 0.00 0.00 50 1016.5
20260507021553 64 257 9.0 18.0 0.00 0.00 0.00 49 1016.5
20260507020112 65 264 12.0 19.0 0.00 0.00 0.00 47 1016.3
20260507014555 66 259 12.0 18.0 0.00 0.00 0.00 45 1016.3
20260507013057 66 236 14.0 24.0 0.00 0.00 0.00 44 1016.2
20260507011548 67 238 15.0 20.0 0.00 0.00 0.00 43 1016.1
20260507010059 68 250 18.0 29.0 0.00 0.00 0.00 40 1016.0
20260507004600 68 281 16.0 28.0 0.00 0.00 0.00 40 1016.1